Location: Unspecified
(37.6100°N, 2.7800°W)
Time: 22:23:43
(UTC+00:00)

Envisat - Pass Details

Date: 25 October 2018
Orbit: 764 x 766 km, 98.2° (Epoch: 13 November)

Event Time Altitude Azimuth Distance (km) Brightness Sun altitude
Rises 18:27:16 0° 143° (SE) 3,219 5.9 -13.8°
Reaches altitude 10° 18:29:43 10° 135° (SE) 2,297 5.1 -14.2°
Maximum altitude 18:34:17 35° 70° (ENE) 1,220 3.5 -15.1°
Drops below altitude 10° 18:38:52 10° 6° (N) 2,309 5.4 -16.0°
Sets 18:41:20 0° 358° (N) 3,239 6.2 -16.5°
